Terminal Aerodrome Forecast
Issued by NWS Pueblo, CO

Home | Current Version | Previous Version | Text Only | Print | Product List | Glossary On
Versions: 1 2 3 4 5 6 7 8 9 10 11 12 13 14 15 16 17 18 19 20 21 22 23 24 25 26 27 28 29 30 31 32 33 34 35 36 37
000
FTUS45 KPUB 281724
TAFALS
TAF
KALS 281724Z 2818/2918 32013KT P6SM SCT100 SCT250
     FM282100 01008KT P6SM SCT100 SCT200
     FM282300 09008KT P6SM SCT100 SCT150
     FM290400 VRB04KT P6SM SCT200=

USA.gov is the U.S. government's official web portal to all federal, state and local government web resources and services.